When you browse on this site, cookies collect data to enhance your experience and personalize the content and advertising you see.
Visit our Privacy Policy to learn more. By continuing to use the site, you agree to this use of cookies and data.
  • In Portugal
  • List of Countries
  • For 7 days
  • Water Temperature
  • Satellite Maps
  • Weather Map
  • Weather Widgets
  • user-avatar
    Login

    Hourly Weather Parzyce

    Today, 11 December, Tuesday

    Time Temperature Precipitation Wind Pressure Humidity
    00:00 -1°C° 0.2 mm 6 mps 739 mmHg 83%
    01:00 +1°C° 0 mm 5 mps 739 mmHg 83%
    02:00 +1°C° 0.3 mm 5 mps 739 mmHg 84%
    03:00 +1°C° 0.3 mm 5 mps 739 mmHg 84%
    04:00 +1°C° 0.3 mm 5 mps 739 mmHg 85%
    05:00 +1°C° 0.6 mm 6 mps 739 mmHg 85%
    06:00 +1°C° 0.6 mm 6 mps 739 mmHg 84%
    07:00 0°C° 0 mm 5 mps 738 mmHg 84%
    08:00 -1°C° 0.7 mm 6 mps 739 mmHg 85%
    09:00 +1°C° 0.7 mm 6 mps 739 mmHg 85%
    10:00 +1°C° 0.7 mm 6 mps 739 mmHg 85%
    11:00 +1°C° 0.5 mm 6 mps 740 mmHg 84%
    12:00 +1°C° 0.5 mm 5 mps 740 mmHg 84%
    13:00 0°C° 0 mm 4 mps 740 mmHg 83%
    14:00 +1°C° 0.2 mm 3 mps 741 mmHg 84%
    15:00 +1°C° 0.2 mm 3 mps 741 mmHg 85%
    16:00 0°C° 0.2 mm 3 mps 742 mmHg 86%
    17:00 0°C° 0.3 mm 3 mps 742 mmHg 88%
    18:00 +1°C° 0.3 mm 2 mps 742 mmHg 90%
    19:00 +1°C° 0.3 mm 2 mps 743 mmHg 91%
    20:00 +1°C° 0.1 mm 2 mps 743 mmHg 92%
    21:00 -1°C° 0.1 mm 2 mps 743 mmHg 93%
    22:00 -1°C° 0.1 mm 2 mps 743 mmHg 95%
    23:00 -1°C° 0.1 mm 2 mps 744 mmHg 95%

    Tomorrow, 12 December, Wednesday

    Time Temperature Precipitation Wind Pressure Humidity
    00:00 +1°C° 0.1 mm 2 mps 744 mmHg 95%
    01:00 0°C° 0.1 mm 3 mps 744 mmHg 95%
    02:00 0°C° 0.3 mm 3 mps 745 mmHg 95%
    03:00 0°C° 0.3 mm 3 mps 745 mmHg 95%
    04:00 0°C° 0.3 mm 3 mps 745 mmHg 95%
    05:00 0°C° 0.2 mm 3 mps 746 mmHg 95%
    06:00 0°C° 0.2 mm 3 mps 746 mmHg 95%
    07:00 0°C° 0.2 mm 3 mps 746 mmHg 95%
    08:00 0°C° 0.1 mm 3 mps 747 mmHg 94%
    09:00 0°C° 0.1 mm 3 mps 747 mmHg 92%
    10:00 0°C° 0.1 mm 3 mps 748 mmHg 91%
    11:00 0°C° 0.1 mm 3 mps 748 mmHg 88%
    12:00 +1°C° 0.1 mm 2 mps 748 mmHg 85%
    13:00 +2°C° 0.1 mm 2 mps 748 mmHg 83%
    14:00 +1°C° 0 mm 2 mps 749 mmHg 84%
    15:00 -1°C° 0 mm 2 mps 749 mmHg 85%
    16:00 0°C° 0 mm 1 mps 749 mmHg 86%
    17:00 0°C° 0 mm 1 mps 749 mmHg 87%
    18:00 -1°C° 0 mm 1 mps 749 mmHg 89%
    19:00 -1°C° 0 mm 1 mps 749 mmHg 91%
    20:00 -1°C° 0 mm 1 mps 750 mmHg 91%
    21:00 -2°C° 0 mm 1 mps 750 mmHg 91%
    22:00 -2°C° 0 mm 1 mps 750 mmHg 92%
    23:00 -2°C° 0 mm 1 mps 750 mmHg 92%

    Day after tomorrow, 13 December, Thursday

    Time Temperature Precipitation Wind Pressure Humidity
    00:00 -1°C° 0 mm 1 mps 750 mmHg 92%
    01:00 -1°C° 0 mm 1 mps 750 mmHg 92%
    02:00 -1°C° 0 mm 1 mps 750 mmHg 92%
    03:00 -1°C° 0 mm 1 mps 750 mmHg 92%
    04:00 -1°C° 0 mm 1 mps 749 mmHg 93%
    05:00 -1°C° 0 mm 1 mps 749 mmHg 93%
    06:00 -1°C° 0 mm 1 mps 749 mmHg 94%
    07:00 -1°C° 0 mm 1 mps 749 mmHg 94%
    08:00 -1°C° 0 mm 1 mps 749 mmHg 94%
    09:00 0°C° 0 mm 1 mps 749 mmHg 93%
    10:00 0°C° 0 mm 1 mps 749 mmHg 92%
    11:00 +1°C° 0 mm 1 mps 749 mmHg 91%
    12:00 -1°C° 0 mm 2 mps 749 mmHg 90%
    13:00 -1°C° 0 mm 2 mps 748 mmHg 88%
    14:00 -1°C° 0 mm 2 mps 748 mmHg 89%
    15:00 -1°C° 0 mm 2 mps 748 mmHg 89%
    16:00 -1°C° 0 mm 2 mps 748 mmHg 89%
    17:00 -2°C° 0 mm 2 mps 748 mmHg 90%
    18:00 -2°C° 0 mm 2 mps 749 mmHg 90%
    19:00 -2°C° 0 mm 2 mps 749 mmHg 91%
    20:00 -2°C° 0 mm 2 mps 749 mmHg 92%
    21:00 -3°C° 0 mm 2 mps 749 mmHg 92%
    22:00 -3°C° 0 mm 2 mps 749 mmHg 93%
    23:00 -3°C° 0 mm 2 mps 749 mmHg 93%

    14 December, Friday

    Time Temperature Precipitation Wind Pressure Humidity
    00:00 -3°C° 0 mm 2 mps 749 mmHg 93%
    01:00 -3°C° 0 mm 2 mps 749 mmHg 92%
    02:00 -3°C° 0 mm 2 mps 749 mmHg 92%
    03:00 -3°C° 0 mm 2 mps 749 mmHg 91%
    04:00 -3°C° 0 mm 2 mps 749 mmHg 91%
    05:00 -3°C° 0 mm 2 mps 749 mmHg 91%
    06:00 -3°C° 0 mm 2 mps 749 mmHg 91%
    07:00 -4°C° 0 mm 2 mps 749 mmHg 91%
    08:00 -3°C° 0 mm 2 mps 749 mmHg 90%
    09:00 -4°C° 0 mm 3 mps 750 mmHg 89%
    10:00 -2°C° 0 mm 3 mps 750 mmHg 88%
    11:00 -2°C° 0 mm 3 mps 750 mmHg 86%
    12:00 -2°C° 0 mm 3 mps 750 mmHg 85%
    13:00 -1°C° 0 mm 3 mps 750 mmHg 83%
    14:00 -2°C° 0 mm 3 mps 750 mmHg 84%
    15:00 -2°C° 0 mm 2 mps 750 mmHg 85%
    16:00 -3°C° 0 mm 2 mps 750 mmHg 86%
    17:00 -3°C° 0 mm 2 mps 750 mmHg 87%
    18:00 -3°C° 0 mm 2 mps 751 mmHg 87%
    19:00 -4°C° 0 mm 2 mps 751 mmHg 88%
    20:00 -4°C° 0 mm 2 mps 751 mmHg 89%
    21:00 -4°C° 0 mm 2 mps 751 mmHg 90%
    22:00 -5°C° 0 mm 2 mps 751 mmHg 91%
    23:00 -5°C° 0 mm 2 mps 751 mmHg 91%

    15 December, Saturday

    Time Temperature Precipitation Wind Pressure Humidity
    00:00 -3°C° 0 mm 1 mps 751 mmHg 91%
    01:00 -3°C° 0 mm 1 mps 752 mmHg 91%
    02:00 -3°C° 0 mm 1 mps 752 mmHg 91%
    03:00 -3°C° 0 mm 1 mps 752 mmHg 91%
    04:00 -3°C° 0 mm 1 mps 752 mmHg 91%
    05:00 -3°C° 0 mm 1 mps 752 mmHg 91%
    06:00 -3°C° 0 mm 1 mps 752 mmHg 91%
    07:00 -3°C° 0 mm 1 mps 752 mmHg 91%
    08:00 -3°C° 0 mm 1 mps 753 mmHg 90%
    09:00 -2°C° 0 mm 1 mps 753 mmHg 89%
    10:00 -1°C° 0 mm 1 mps 754 mmHg 88%
    11:00 -1°C° 0 mm 1 mps 754 mmHg 86%
    12:00 0°C° 0 mm 1 mps 754 mmHg 85%
    13:00 +1°C° 0 mm 1 mps 754 mmHg 83%
    14:00 0°C° 0 mm 1 mps 754 mmHg 86%
    15:00 0°C° 0 mm 1 mps 754 mmHg 88%
    16:00 -1°C° 0 mm 1 mps 754 mmHg 90%
    17:00 -1°C° 0 mm 1 mps 754 mmHg 91%
    18:00 -1°C° 0 mm 1 mps 754 mmHg 93%
    19:00 -4°C° 0 mm 2 mps 754 mmHg 94%
    20:00 -2°C° 0 mm 1 mps 754 mmHg 93%
    21:00 -3°C° 0 mm 1 mps 754 mmHg 93%
    22:00 -3°C° 0 mm 1 mps 754 mmHg 92%
    23:00 -3°C° 0 mm 1 mps 754 mmHg 92%

    16 December, Sunday

    Time Temperature Precipitation Wind Pressure Humidity
    00:00 -3°C° 0 mm 1 mps 754 mmHg 91%
    01:00 -5°C° 0 mm 2 mps 754 mmHg 90%
    02:00 -5°C° 0 mm 2 mps 754 mmHg 90%
    03:00 -5°C° 0 mm 2 mps 753 mmHg 89%
    04:00 -6°C° 0 mm 2 mps 753 mmHg 89%
    05:00 -6°C° 0 mm 2 mps 753 mmHg 88%
    06:00 -6°C° 0 mm 2 mps 753 mmHg 88%
    07:00 -7°C° 0 mm 3 mps 752 mmHg 87%
    08:00 -6°C° 0 mm 3 mps 752 mmHg 85%
    09:00 -6°C° 0 mm 3 mps 752 mmHg 84%
    10:00 -5°C° 0 mm 3 mps 752 mmHg 82%
    11:00 -4°C° 0 mm 3 mps 751 mmHg 81%
    12:00 -4°C° 0 mm 3 mps 751 mmHg 79%
    13:00 -3°C° 0 mm 4 mps 750 mmHg 78%
    14:00 -3°C° 0 mm 4 mps 750 mmHg 79%
    15:00 -3°C° 0 mm 4 mps 749 mmHg 80%
    16:00 -3°C° 0 mm 4 mps 749 mmHg 80%
    17:00 -3°C° 0 mm 4 mps 749 mmHg 80%
    18:00 -3°C° 0 mm 4 mps 749 mmHg 79%
    19:00 -3°C° 0 mm 4 mps 748 mmHg 78%
    20:00 -3°C° 0.1 mm 4 mps 748 mmHg 79%
    21:00 -2°C° 0.1 mm 4 mps 748 mmHg 79%
    22:00 -2°C° 0.1 mm 4 mps 747 mmHg 80%
    23:00 -1°C° 0.1 mm 3 mps 747 mmHg 81%
    Show more